Погода в Чердыни

Погода в Чердыни : погода сейчас, прогноз погоды и архив. Всё, что Вы хотите узнать о погоде в Чердыни!

Хотите узнать прогноз погоды в Чердыни? Тогда Вам сюда: Погода в Чердыни

Поиск расширенной информации на нашем сайте:

Другие новости

Новости СМИ2

Главная страница сайта

Новости сайта

02.10.2013

Напоминаем, что на нашем новом сайте вы можете получить высокодетализированные прогнозы погоды по пунктам России, СНГ и мира (включающие важные для авиации метеовеличины, такие как направление и скорость ветра, видимость, явления погоды, количество и форма облачности, нижняя и верхняя граница облачности), а также ознакомиться с разнообразными материалами по авиационной метеорологии и подборкой полезных ссылок на эту тему.

Сайт Метеоцентр.Азия посвящён разработке технологий оптимизации авиаметеорологического обслуживания, включая проектирование и перспективное создание нескольких автоматизированных авиаметеорологических систем:
- система выпуска высокодетальных прогностических карт явлений погоды для нижнего воздушного пространства по России и ближнему зарубежью;
- система верификации прогнозов TAF (выпускаемых синоптиками официальных АМСГ РФ и ближнего зарубежья) и AUTOTAF (выпускаемых сайтом Метеоцентр.Азия) - выявление ошибок, онлайн-сопоставление с фактической погодой METAR, автоматическое внесение коррективов в прогнозы при резком отклонении фактической погоды от прогноза, подсчёт оправдываемости прогнозов по элементам и в целом;
- система обработки, анализа и отображения авиаметеорологической информации для применения провайдерами метеорологической информации.

Рекомендуем: Охрана труда в животноводстве пот о правила по охране труда в животноводстве.

Погода в Чердыни - сегодня

Время (UTC), дата Ветер
(°,м/с) 
Видим.   Явления Облачность Т
(°С)
Тd
(°С)
f(%) Тe
(°С)
Pmin
(гПа)
dP
(гПа)
Po
(мм)
O2
(г/м3)
Тmin Tmax R s Состояние
почвы
09 23.04.17 100 (В) 20000 м  слаб. снег  10/10 300 м 
[Frnb|Ns]
+1.5 +0.5 93 +1  1001.2  -0.6  732  293           
12 23.04.17 130 (ЮВ) 10 км  слаб. снег{дождь}  10/10 300 м 
[Frnb|Ns]
+1.6 +0.8 94 +1  1001.3  0.1  732  293           
15 23.04.17 170 (Ю) 4000 м  слаб. дождь{снег}  10/10 300 м 
[Frnb|Ns]
+2 +1.4 96 +1  1002.3  733  293    +2     
18 23.04.17 190 (Ю) 10 км  в посл. час дождь{снег}  10/10 300 м 
[Ns]
+2.1 +1.5 96 1004.3  734  293           
21 23.04.17 200 (Ю) 4000 м  слаб. ливневой снег  9/9 300 м кучево-дожд. 
[Cb cap]
+1.5 +0.6 94 -1  1005.4  0.9  735  294           
00 24.04.17 180 (Ю) 10 км  {ливн. осадки}  6/6 300 м кучево-дожд. 
[Cb cap]
+0.5 -0.1 96 -3  1006.3  0.9  736  296           
03 24.04.17 170 (Ю) 20000 м    3/3 300 м средняя 
[Sc|Ac cast]
+1.6 +0.1 90 -1  1007.8  1.5  737  295  +0.4    0.9  37  равномерный
мокрый или
старый снег
100% 
06 24.04.17 130 (ЮВ) 20000 м    4/3 1000 м средняя 
[Cu hum|Ac lent]
+5.4 +0.6 71 +4  1008.2  0.8  737  291           
09 24.04.17 220 (ЮЗ) 4{11}  20000 м    8/6 600 м кучево-дожд., верхняя 
[Cb cap|Ci]
+8.5 -3.7 42 +7  1008.8  0.8  738  289           
12 24.04.17 190 (Ю) 20000 м    9/8 300 м кучево-дожд., верхняя 
[Cb cap|Cs]
+9.6 -5.1 35 +9  1008.3  -0.3  738  288           
15 24.04.17 120 (ЮВ) 20000 м    8/3 300 м средняя, верхняя 
[Sc|Ac lent|Cs]
+8.1 -5.6 37 +8  1008.6  738  289    +10.2       
18 24.04.17 060 (СВ) 20000 м    10/3 300 м средняя, верхняя 
[Sc diur, vesp|Ac cast|Cs]
+5.3 -4.1 51 +5  1007.3  -1.5  737  292           
21 24.04.17 040 (СВ) 20000 м    10/0 верхняя 
[Ci fib]
+3.2 -3.4 62 +4  1004.8  -2.6  735  293           
00 25.04.17 360 (С) 20000 м  слаб. ливневой дождь  10/10 300 м кучево-дожд. 
[Cb cap]
+2.3 -0.2 84 +1  1001.3  -3.5  732  292           
03 25.04.17 340 (С) 10 км  слаб. снег{ливн. осадки}  10/10 300 м 
[Frnb|Ns]
+1.5 +1 96 -1  998.6  -2.7  730  292  +1.5    31  равномерный
мокрый или
старый снег
100% 
06 25.04.17 360 (С) 4000 м  дождь со снегом{ливн. осадки}  10/10 300 м 
[Ns]
+1.1 +0.8 98 997.6  -1.1  729  292  +1.1         
09 25.04.17 310 (СЗ) 4000 м  дождь{снег}  10/10 300 м 
[Ns]
+2.1 +1.6 96 +3  999.6  731  292           
12 25.04.17 260 (З) 10 км  дождь{снег}  10/10 300 м 
[Ns]
+1.9 +1.1 94 +1  1002.7  3.1  733  293           
15 25.04.17 260 (З) 10 км  дождь  10/10 300 м 
[Ns]
+1.2 +0.7 96 -1  1007.3  4.4  736  295    +2.7     
18 25.04.17 240 (ЮЗ) 4000 м  слаб. снег{дождь}  10/10 300 м 
[Frnb|Ns]
+0.4 +0.1 98 -2  1011.7  4.2  740  297           
21 25.04.17 250 (З) 4000 м  слаб. снег  10/10 300 м 
[Ns]
+0.6 +0.3 98 -1  1014.4  2.6  741  298           
00 26.04.17 250 (З) 10 км  {снег}  10/9 300 м средняя 
[As op]
+0.8 +0.4 97 1016.2  1.8  743  298           
03 26.04.17 300 (СЗ) 4000 м  слаб. снег  10/10 2000 м 
[Ns]
+1.2 +0.7 96 +2  1018.3  2.1  744  299  +0.3    29  мокрый или
старый снег
50-90% 
06 26.04.17 010 (С) 20000 м  в посл. час дождь{снег}  10/6 300 м средняя 
[Frnb|Ac As]
+2.2 +0.4 88 +3  1020.3  1.9  746  298           
09 26.04.17 280 (З) 20000 м    8/4 300 м кучево-дожд., верхняя 
[Cb cap|Ci]
+5.6 -0.7 64 +6  1020.7  0.7  746  295           
Время (UTC), дата Ветер
(°,м/с) 
Видим.   Явления Облачность Т
(°С)
Тd
(°С)
f(%) Тe
(°С)
Pmin
(гПа)
dP
(гПа)
Po
(мм)
O2
(г/м3)
Тmin Tmax R s Состояние
почвы

Для получения пояснительной информации подведите курсор к названию столбца.

ПОГОДА в Чердыни - архив

Всё, что Вы хотите узнать о погоде в Чердыни - удобно и подробно!

Выберите нужную дату (начиная с 1 января 2015* года) и нажмите кнопку "Найти".
Будут отображены архивные сводки погоды по пункту Чердынь, начиная с указанной даты.


Отображать данные в формате CSV (для использования в таблицах Excel)


Внимание! Наш архив погоды предназначен исключительно для личного некоммерческого использования в познавательных целях. Если Вам необходимы официальные справки о состоянии погоды (для производственных, юридических, коммерческих и т.п. целей), обращайтесь в органы Росгидромета.

*Примечание: данная дата относится к архиву по метеостанциям СССР (Россия, СНГ, Балтия).
Архив по метеостанциям Зарубежной Европы и Азии (кроме Китая) хранится 10 дней, по другим регионам земного шара (Китай, Африка, Америка, Австралия, Океания) - 1 день.

Чердынь - район местоположения метеостанции


Название, широта, долгота, высота метеостанции:
Чердынь 60.4°ш. 56.5°д. 207 м над ур. моря [Российская Федерация]

Дополнительная информация

В oтличие oт бoльшинства пoгoдных сайтoв мы публикуем пoдрoбную метеoинфoрмацию в детальнoм прoфессиoнальнoм фoрмате.

Характеристики температуры и влажнoсти вoздуха измеряются на высoте 2 м в тени вдали oт зданий и деревьев.
Скoрoсть ветра измеряется на высoте 10 м (на урoвне рoста челoвека скoрoсть ветра ниже в 1.5-2 раза). Если метеoстанция нахoдится в гoрoде или в лесу, тo скoрoсть ветра занижена на 2-4 м/с пo сравнению с oткрытым местoм. Скoрoсть ветра над акватoриями крупных рек и oзёр, а также на вершинах хoлмoв на 2-5 м/с выше, чем в oбычных услoвиях.
Атмoсфернoе давление в разных тoчках местнoсти мoжет значительнo oтличаться oт давления на метеoстанции, в зависимoсти oт услoвий рельефа (при пoдъёме на 10 м давление пoнижается примернo на 1 мм рт.ст.).